When you browse on this site, cookies collect data to enhance your experience and personalize the content and advertising you see.
Visit our Privacy Policy to learn more. By continuing to use the site, you agree to this use of cookies and data.
  • In Belgien
  • Länderverzeichnis
  • Für 7 Tage
  • Wassertemperatur
  • Satellitenkarten
  • Wetterkarte
  • Widgets
  • user-avatar
    Anmelden

    Stündliche Wetter Kanje

    Heute, 27 Mai, Montag

    Zeit Temperatur Niederschläge Wind Luftdruck Luftfeuchtigkeit
    00:00 +13°C° 0 mm 1 m/S 653 mmHg 46%
    01:00 +11°C° 0 mm 0 m/S 653 mmHg 47%
    02:00 +11°C° 0 mm 0 m/S 653 mmHg 49%
    03:00 +11°C° 0 mm 0 m/S 653 mmHg 51%
    04:00 +10°C° 0 mm 0 m/S 653 mmHg 52%
    05:00 +10°C° 0 mm 0 m/S 653 mmHg 53%
    06:00 +11°C° 0 mm 0 m/S 653 mmHg 51%
    07:00 +12°C° 0 mm 0 m/S 654 mmHg 48%
    08:00 +14°C° 0 mm 1 m/S 654 mmHg 46%
    09:00 +16°C° 0 mm 1 m/S 655 mmHg 40%
    10:00 +19°C° 0 mm 1 m/S 656 mmHg 34%
    11:00 +21°C° 0 mm 1 m/S 656 mmHg 29%
    12:00 +22°C° 0 mm 1 m/S 656 mmHg 26%
    13:00 +23°C° 0 mm 2 m/S 655 mmHg 24%
    14:00 +23°C° 0 mm 2 m/S 655 mmHg 22%
    15:00 +23°C° 0 mm 2 m/S 655 mmHg 23%
    16:00 +21°C° 0 mm 2 m/S 654 mmHg 24%
    17:00 +21°C° 0 mm 2 m/S 654 mmHg 24%
    18:00 +19°C° 0 mm 2 m/S 654 mmHg 26%
    19:00 +18°C° 0 mm 2 m/S 653 mmHg 28%
    20:00 +16°C° 0 mm 1 m/S 653 mmHg 30%
    21:00 +16°C° 0 mm 1 m/S 653 mmHg 31%
    22:00 +15°C° 0 mm 1 m/S 653 mmHg 33%
    23:00 +14°C° 0 mm 1 m/S 653 mmHg 34%

    Morgen, 28 Mai, Dienstag

    Zeit Temperatur Niederschläge Wind Luftdruck Luftfeuchtigkeit
    00:00 +14°C° 0 mm 1 m/S 652 mmHg 36%
    01:00 +13°C° 0 mm 1 m/S 652 mmHg 38%
    02:00 +11°C° 0 mm 0 m/S 652 mmHg 40%
    03:00 +11°C° 0 mm 0 m/S 652 mmHg 41%
    04:00 +10°C° 0 mm 0 m/S 652 mmHg 43%
    05:00 +10°C° 0 mm 0 m/S 652 mmHg 45%
    06:00 +11°C° 0 mm 0 m/S 653 mmHg 44%
    07:00 +12°C° 0 mm 0 m/S 653 mmHg 43%
    08:00 +13°C° 0 mm 0 m/S 654 mmHg 42%
    09:00 +16°C° 0 mm 1 m/S 655 mmHg 37%
    10:00 +19°C° 0 mm 1 m/S 655 mmHg 32%
    11:00 +20°C° 0 mm 2 m/S 656 mmHg 26%
    12:00 +21°C° 0 mm 2 m/S 655 mmHg 24%
    13:00 +23°C° 0 mm 2 m/S 654 mmHg 23%
    14:00 +23°C° 0 mm 1 m/S 654 mmHg 21%
    15:00 +23°C° 0 mm 1 m/S 654 mmHg 22%
    16:00 +22°C° 0 mm 1 m/S 653 mmHg 24%
    17:00 +22°C° 0 mm 1 m/S 653 mmHg 25%
    18:00 +20°C° 0 mm 1 m/S 653 mmHg 28%
    19:00 +18°C° 0 mm 1 m/S 653 mmHg 30%
    20:00 +15°C° 0 mm 1 m/S 652 mmHg 33%
    21:00 +15°C° 0 mm 1 m/S 653 mmHg 34%
    22:00 +14°C° 0 mm 1 m/S 653 mmHg 36%
    23:00 +14°C° 0 mm 1 m/S 653 mmHg 37%

    übermorgen, 29 Mai, Mittwoch

    Zeit Temperatur Niederschläge Wind Luftdruck Luftfeuchtigkeit
    00:00 +13°C° 0 mm 1 m/S 653 mmHg 38%
    01:00 +13°C° 0 mm 1 m/S 652 mmHg 40%
    02:00 +11°C° 0 mm 0 m/S 652 mmHg 41%
    03:00 +11°C° 0 mm 0 m/S 652 mmHg 42%
    04:00 +10°C° 0 mm 0 m/S 652 mmHg 44%
    05:00 +10°C° 0 mm 0 m/S 652 mmHg 45%
    06:00 +11°C° 0 mm 0 m/S 652 mmHg 44%
    07:00 +12°C° 0 mm 0 m/S 653 mmHg 43%
    08:00 +13°C° 0 mm 0 m/S 654 mmHg 42%
    09:00 +16°C° 0 mm 1 m/S 655 mmHg 36%
    10:00 +20°C° 0 mm 1 m/S 655 mmHg 30%
    11:00 +22°C° 0 mm 1 m/S 656 mmHg 24%
    12:00 +23°C° 0 mm 2 m/S 656 mmHg 22%
    13:00 +23°C° 0 mm 2 m/S 655 mmHg 21%
    14:00 +24°C° 0 mm 2 m/S 654 mmHg 19%
    15:00 +23°C° 0 mm 2 m/S 654 mmHg 20%
    16:00 +23°C° 0 mm 2 m/S 654 mmHg 22%
    17:00 +21°C° 0 mm 2 m/S 653 mmHg 23%
    18:00 +19°C° 0 mm 2 m/S 653 mmHg 25%
    19:00 +18°C° 0 mm 2 m/S 653 mmHg 27%
    20:00 +16°C° 0 mm 2 m/S 653 mmHg 29%
    21:00 +16°C° 0 mm 2 m/S 653 mmHg 30%
    22:00 +15°C° 0 mm 1 m/S 653 mmHg 31%
    23:00 +15°C° 0 mm 1 m/S 653 mmHg 32%

    30 Mai, Donnerstag

    Zeit Temperatur Niederschläge Wind Luftdruck Luftfeuchtigkeit
    00:00 +14°C° 0 mm 1 m/S 653 mmHg 34%
    01:00 +14°C° 0 mm 1 m/S 653 mmHg 35%
    02:00 +13°C° 0 mm 1 m/S 652 mmHg 36%
    03:00 +13°C° 0 mm 1 m/S 652 mmHg 37%
    04:00 +12°C° 0 mm 1 m/S 652 mmHg 39%
    05:00 +12°C° 0 mm 1 m/S 652 mmHg 40%
    06:00 +12°C° 0 mm 1 m/S 653 mmHg 40%
    07:00 +13°C° 0 mm 1 m/S 653 mmHg 39%
    08:00 +14°C° 0 mm 1 m/S 654 mmHg 38%
    09:00 +16°C° 0 mm 2 m/S 654 mmHg 34%
    10:00 +18°C° 0 mm 3 m/S 655 mmHg 30%
    11:00 +20°C° 0 mm 4 m/S 656 mmHg 26%
    12:00 +21°C° 0 mm 3 m/S 655 mmHg 25%
    13:00 +22°C° 0 mm 3 m/S 654 mmHg 23%
    14:00 +22°C° 0 mm 3 m/S 654 mmHg 22%
    15:00 +23°C° 0 mm 2 m/S 653 mmHg 23%
    16:00 +21°C° 0 mm 2 m/S 653 mmHg 24%
    17:00 +21°C° 0 mm 2 m/S 653 mmHg 25%
    18:00 +19°C° 0 mm 2 m/S 653 mmHg 28%
    19:00 +17°C° 0 mm 2 m/S 652 mmHg 30%
    20:00 +16°C° 0 mm 2 m/S 652 mmHg 33%
    21:00 +15°C° 0 mm 2 m/S 652 mmHg 34%
    22:00 +15°C° 0 mm 2 m/S 652 mmHg 36%
    23:00 +14°C° 0 mm 2 m/S 653 mmHg 37%

    31 Mai, Freitag

    Zeit Temperatur Niederschläge Wind Luftdruck Luftfeuchtigkeit
    00:00 +14°C° 0 mm 2 m/S 652 mmHg 40%
    01:00 +13°C° 0 mm 2 m/S 652 mmHg 42%
    02:00 +13°C° 0 mm 2 m/S 651 mmHg 45%
    03:00 +13°C° 0 mm 2 m/S 651 mmHg 48%
    04:00 +12°C° 0 mm 2 m/S 651 mmHg 52%
    05:00 +12°C° 0 mm 2 m/S 651 mmHg 55%
    06:00 +12°C° 0 mm 1 m/S 651 mmHg 55%
    07:00 +13°C° 0 mm 1 m/S 652 mmHg 54%
    08:00 +14°C° 0 mm 1 m/S 652 mmHg 54%
    09:00 +16°C° 0 mm 2 m/S 653 mmHg 46%
    10:00 +19°C° 0 mm 2 m/S 654 mmHg 38%
    11:00 +21°C° 0 mm 3 m/S 654 mmHg 30%
    12:00 +23°C° 0 mm 2 m/S 654 mmHg 28%
    13:00 +23°C° 0 mm 2 m/S 653 mmHg 25%
    14:00 +24°C° 0 mm 2 m/S 652 mmHg 23%
    15:00 +24°C° 0 mm 2 m/S 652 mmHg 24%
    16:00 +23°C° 0 mm 1 m/S 652 mmHg 26%
    17:00 +23°C° 0 mm 1 m/S 651 mmHg 27%
    18:00 +21°C° 0 mm 1 m/S 651 mmHg 29%
    19:00 +20°C° 0 mm 1 m/S 651 mmHg 30%
    20:00 +19°C° 0 mm 1 m/S 651 mmHg 32%
    21:00 +18°C° 0 mm 1 m/S 651 mmHg 33%
    22:00 +17°C° 0 mm 2 m/S 651 mmHg 34%
    23:00 +17°C° 0 mm 2 m/S 651 mmHg 35%

    1 Juni, Samstag

    Zeit Temperatur Niederschläge Wind Luftdruck Luftfeuchtigkeit
    00:00 +17°C° 0 mm 2 m/S 651 mmHg 35%
    01:00 +16°C° 0 mm 2 m/S 651 mmHg 35%
    02:00 +16°C° 0 mm 2 m/S 651 mmHg 35%
    03:00 +16°C° 0 mm 2 m/S 651 mmHg 35%
    04:00 +16°C° 0 mm 2 m/S 651 mmHg 36%
    05:00 +16°C° 0 mm 3 m/S 651 mmHg 36%
    06:00 +16°C° 0 mm 2 m/S 652 mmHg 36%
    07:00 +16°C° 0 mm 2 m/S 652 mmHg 37%
    08:00 +16°C° 0 mm 1 m/S 653 mmHg 38%
    09:00 +18°C° 0 mm 3 m/S 653 mmHg 33%
    10:00 +20°C° 0 mm 4 m/S 654 mmHg 28%
    11:00 +23°C° 0 mm 5 m/S 654 mmHg 23%
    12:00 +25°C° 0 mm 4 m/S 654 mmHg 21%
    13:00 +25°C° 0 mm 4 m/S 654 mmHg 19%
    14:00 +26°C° 0 mm 4 m/S 653 mmHg 17%
    15:00 +26°C° 0 mm 3 m/S 653 mmHg 19%
    16:00 +25°C° 0 mm 2 m/S 653 mmHg 20%
    17:00 +24°C° 0 mm 1 m/S 653 mmHg 21%
    18:00 +22°C° 0 mm 1 m/S 652 mmHg 24%
    19:00 +20°C° 0 mm 1 m/S 652 mmHg 27%
    20:00 +18°C° 0 mm 1 m/S 652 mmHg 30%
    21:00 +16°C° 0 mm 1 m/S 652 mmHg 31%
    22:00 +16°C° 0 mm 1 m/S 652 mmHg 32%
    23:00 +15°C° 0 mm 1 m/S 652 mmHg 33%
    Mehr zeigen